Time,TemperatureF,DewpointF,PressureIn,WindDirection,WindDirectionDegrees,WindSpeedMPH,WindSpeedGustMPH,Humidity,HourlyPrecipIn,Conditions,Clouds,dailyrainin,SoftwareType,DateUTC
2013-04-22 00:05:00,33.1,7.1,30.18,WNW,299,0.0,0.0,33,0.00,,---,0.00,VWS V13.01,2013-04-22 04:05:00,
2013-04-22 07:59:00,33.1,7.1,30.18,WNW,299,0.0,0.0,33,0.00,,---,0.00,VWS V13.01,2013-04-22 11:59:00,
2013-04-22 08:04:00,33.1,7.1,30.18,SSE,161,4.0,4.0,33,0.00,,---,0.00,VWS V13.01,2013-04-22 12:04:00,
2013-04-22 08:09:00,33.1,7.1,30.18,SSE,158,5.4,5.4,33,0.00,,---,0.00,VWS V13.01,2013-04-22 12:09:00,
2013-04-22 08:14:00,33.1,7.1,30.18,South,172,4.0,4.0,33,0.00,,---,0.00,VWS V13.01,2013-04-22 12:14:00,
2013-04-22 08:19:00,33.1,7.1,30.18,South,172,4.0,4.0,33,0.00,,---,0.00,VWS V13.01,2013-04-22 12:19:00,
2013-04-22 08:24:00,39.2,9.6,30.18,SSE,164,5.4,5.4,29,0.00,,---,0.00,VWS V13.01,2013-04-22 12:24:00,
2013-04-22 08:29:00,39.2,9.6,30.18,South,172,3.1,3.1,29,0.00,,---,0.00,VWS V13.01,2013-04-22 12:29:00,
2013-04-22 08:34:00,39.2,9.6,30.18,South,172,3.1,3.1,29,0.00,,---,0.00,VWS V13.01,2013-04-22 12:34:00,
2013-04-22 08:39:00,39.2,9.6,30.18,SSE,160,5.4,5.4,29,0.00,,---,0.00,VWS V13.01,2013-04-22 12:39:00,
2013-04-22 08:44:00,39.2,9.6,30.18,South,176,5.8,5.8,29,0.00,,---,0.00,VWS V13.01,2013-04-22 12:44:00,
2013-04-22 08:49:00,39.2,9.6,30.18,South,169,5.4,5.8,29,0.00,,---,0.00,VWS V13.01,2013-04-22 12:49:00,
2013-04-22 08:54:00,41.0,11.2,30.18,SSE,162,5.4,5.4,29,0.00,,---,0.00,VWS V13.01,2013-04-22 12:54:00,
2013-04-22 08:59:00,41.0,11.2,30.18,SSE,162,5.4,5.4,29,0.00,,---,0.00,VWS V13.01,2013-04-22 12:59:00,
2013-04-22 09:04:00,41.0,11.2,30.18,SSE,152,7.6,7.6,29,0.00,,---,0.00,VWS V13.01,2013-04-22 13:04:00,
2013-04-22 09:09:00,41.0,11.2,30.18,South,180,5.8,5.8,29,0.00,,---,0.00,VWS V13.01,2013-04-22 13:09:00,
2013-04-22 09:14:00,41.0,11.2,30.18,South,180,5.8,5.8,29,0.00,,---,0.00,VWS V13.01,2013-04-22 13:14:00,
2013-04-22 09:19:00,41.0,11.2,30.18,SSE,154,8.1,8.1,29,0.00,,---,0.00,VWS V13.01,2013-04-22 13:19:00,
2013-04-22 09:24:00,41.0,11.2,30.18,SSE,160,7.6,7.6,29,0.00,,---,0.00,VWS V13.01,2013-04-22 13:24:00,
2013-04-22 09:29:00,41.0,11.2,30.18,SSE,160,7.6,7.6,29,0.00,,---,0.00,VWS V13.01,2013-04-22 13:29:00,
2013-04-22 09:34:00,43.3,9.9,30.18,SSE,160,7.6,7.6,25,0.00,,---,0.00,VWS V13.01,2013-04-22 13:34:00,
2013-04-22 09:39:00,43.7,12.8,30.15,SSE,160,7.6,7.6,28,0.00,,---,0.00,VWS V13.01,2013-04-22 13:39:00,
2013-04-22 09:44:00,43.7,10.2,30.15,South,171,7.6,7.6,25,0.00,,---,0.00,VWS V13.01,2013-04-22 13:44:00,
2013-04-22 09:49:00,44.2,10.7,30.15,SSE,165,6.7,6.7,25,0.00,,---,0.00,VWS V13.01,2013-04-22 13:49:00,
2013-04-22 09:54:00,44.2,10.7,30.15,SSE,165,6.7,6.7,25,0.00,,---,0.00,VWS V13.01,2013-04-22 13:54:00,
2013-04-22 09:59:00,44.2,10.7,30.15,SSE,165,6.7,6.7,25,0.00,,---,0.00,VWS V13.01,2013-04-22 13:59:00,
2013-04-22 10:04:00,44.2,10.7,30.15,SSE,163,7.2,7.2,25,0.00,,---,0.00,VWS V13.01,2013-04-22 14:04:00,
2013-04-22 10:09:00,47.3,15.9,30.15,SSE,159,8.7,8.7,28,0.00,,---,0.00,VWS V13.01,2013-04-22 14:09:00,
2013-04-22 10:13:00,48.4,15.1,30.15,SSE,159,8.7,8.7,26,0.00,,---,0.00,VWS V13.01,2013-04-22 14:13:00,
2013-04-22 10:18:00,48.4,15.1,30.15,SSE,159,8.7,8.7,26,0.00,,---,0.00,VWS V13.01,2013-04-22 14:18:00,
2013-04-22 10:23:00,48.4,15.1,30.15,SSE,153,8.7,8.7,26,0.00,,---,0.00,VWS V13.01,2013-04-22 14:23:00,
2013-04-22 10:28:00,48.4,15.1,30.15,SSE,160,10.5,10.5,26,0.00,,---,0.00,VWS V13.01,2013-04-22 14:28:00,
2013-04-22 10:33:00,48.4,15.1,30.15,SSE,160,10.5,10.5,26,0.00,,---,0.00,VWS V13.01,2013-04-22 14:33:00,
2013-04-22 10:38:00,48.4,15.1,30.15,SSE,160,10.5,10.5,26,0.00,,---,0.00,VWS V13.01,2013-04-22 14:38:00,
2013-04-22 10:43:00,48.4,15.1,30.15,SSE,160,10.5,10.5,26,0.00,,---,0.00,VWS V13.01,2013-04-22 14:43:00,
2013-04-22 10:48:00,48.4,15.1,30.15,SSE,162,10.5,10.5,26,0.00,,---,0.00,VWS V13.01,2013-04-22 14:48:00,
2013-04-22 10:53:00,48.4,15.1,30.15,SSE,158,10.5,10.5,26,0.00,,---,0.00,VWS V13.01,2013-04-22 14:53:00,
2013-04-22 10:58:00,48.4,15.1,30.15,SSE,158,10.5,10.5,26,0.00,,---,0.00,VWS V13.01,2013-04-22 14:58:00,
2013-04-22 11:03:00,48.4,15.1,30.15,SSE,160,8.3,8.3,26,0.00,,---,0.00,VWS V13.01,2013-04-22 15:03:00,
2013-04-22 11:08:00,51.8,13.1,30.15,SSE,156,12.3,12.3,21,0.00,,---,0.00,VWS V13.01,2013-04-22 15:08:00,
2013-04-22 11:13:00,51.8,13.1,30.15,SSE,156,12.3,12.3,21,0.00,,---,0.00,VWS V13.01,2013-04-22 15:13:00,
2013-04-22 11:18:00,51.8,13.1,30.15,SE,140,10.5,10.5,21,0.00,,---,0.00,VWS V13.01,2013-04-22 15:18:00,
2013-04-22 11:23:00,51.8,13.1,30.12,SE,133,8.7,8.7,21,0.00,,---,0.00,VWS V13.01,2013-04-22 15:23:00,
2013-04-22 11:28:00,51.8,13.1,30.12,SSE,147,10.1,10.1,21,0.00,,---,0.00,VWS V13.01,2013-04-22 15:28:00,
2013-04-22 11:33:00,51.8,13.1,30.12,SSE,163,10.5,10.5,21,0.00,,---,0.00,VWS V13.01,2013-04-22 15:33:00,
2013-04-22 11:38:00,51.8,13.1,30.15,SSE,163,10.5,10.5,21,0.00,,---,0.00,VWS V13.01,2013-04-22 15:38:00,
2013-04-22 11:43:00,51.8,13.1,30.15,SE,137,10.1,10.1,21,0.00,,---,0.00,VWS V13.01,2013-04-22 15:43:00,
2013-04-22 11:48:00,51.8,13.1,30.12,SE,145,10.5,10.5,21,0.00,,---,0.00,VWS V13.01,2013-04-22 15:48:00,
2013-04-22 11:53:00,54.7,12.0,30.12,SE,145,10.5,10.5,18,0.00,,---,0.00,VWS V13.01,2013-04-22 15:53:00,
2013-04-22 11:58:00,55.0,12.3,30.12,ESE,115,10.5,10.5,18,0.00,,---,0.00,VWS V13.01,2013-04-22 15:58:00,
2013-04-22 12:03:00,55.0,12.3,30.12,ESE,119,15.0,15.0,18,0.00,,---,0.00,VWS V13.01,2013-04-22 16:03:00,
2013-04-22 12:08:00,55.0,12.3,30.12,SE,131,11.0,11.0,18,0.00,,---,0.00,VWS V13.01,2013-04-22 16:08:00,
2013-04-22 12:13:00,54.7,12.0,30.12,ESE,115,13.2,13.2,18,0.00,,---,0.00,VWS V13.01,2013-04-22 16:13:00,
2013-04-22 12:18:00,54.9,12.2,30.12,ESE,115,13.2,13.2,18,0.00,,---,0.00,VWS V13.01,2013-04-22 16:18:00,
2013-04-22 12:23:00,54.9,12.2,30.12,SE,143,8.3,8.3,18,0.00,,---,0.00,VWS V13.01,2013-04-22 16:23:00,
2013-04-22 12:28:00,54.9,12.2,30.12,SE,139,10.1,10.1,18,0.00,,---,0.00,VWS V13.01,2013-04-22 16:28:00,
2013-04-22 12:33:00,54.5,11.9,30.12,SE,139,10.1,10.1,18,0.00,,---,0.00,VWS V13.01,2013-04-22 16:33:00,
2013-04-22 12:38:00,54.5,11.9,30.12,SE,141,11.0,11.0,18,0.00,,---,0.00,VWS V13.01,2013-04-22 16:38:00,
2013-04-22 12:43:00,55.9,11.8,30.12,SE,146,9.6,9.6,17,0.00,,---,0.00,VWS V13.01,2013-04-22 16:43:00,
2013-04-22 12:48:00,56.3,12.1,30.12,SSE,161,7.6,7.6,17,0.00,,---,0.00,VWS V13.01,2013-04-22 16:48:00,
2013-04-22 12:53:00,56.3,12.1,30.09,SSE,161,6.3,6.3,17,0.00,,---,0.00,VWS V13.01,2013-04-22 16:53:00,
2013-04-22 12:58:00,56.8,12.5,30.09,SSE,161,6.3,6.3,17,0.00,,---,0.00,VWS V13.01,2013-04-22 16:58:00,
2013-04-22 13:03:00,56.1,11.9,30.09,SSE,163,8.3,8.3,17,0.00,,---,0.00,VWS V13.01,2013-04-22 17:03:00,
2013-04-22 13:08:00,55.9,11.8,30.09,SSE,153,10.5,10.5,17,0.00,,---,0.00,VWS V13.01,2013-04-22 17:08:00,
2013-04-22 13:13:00,55.9,11.8,30.09,SSE,153,10.5,10.5,17,0.00,,---,0.00,VWS V13.01,2013-04-22 17:13:00,
2013-04-22 13:18:00,54.0,11.4,30.09,SSE,166,10.1,10.1,18,0.00,,---,0.00,VWS V13.01,2013-04-22 17:18:00,
2013-04-22 13:23:00,54.0,11.4,30.09,SSE,167,8.3,8.3,18,0.00,,---,0.00,VWS V13.01,2013-04-22 17:23:00,
2013-04-22 13:28:00,53.1,10.7,30.09,SSE,160,11.0,11.0,18,0.00,,---,0.00,VWS V13.01,2013-04-22 17:28:00,
2013-04-22 13:33:00,53.1,10.7,30.09,SE,146,12.8,12.8,18,0.00,,---,0.00,VWS V13.01,2013-04-22 17:33:00,
2013-04-22 13:38:00,53.1,10.7,30.06,SE,146,12.8,12.8,18,0.00,,---,0.00,VWS V13.01,2013-04-22 17:38:00,
2013-04-22 13:43:00,54.1,11.6,30.06,SSE,158,13.2,13.2,18,0.00,,---,0.00,VWS V13.01,2013-04-22 17:43:00,
2013-04-22 13:48:00,54.5,11.9,30.06,SSE,164,10.1,10.1,18,0.00,,---,0.00,VWS V13.01,2013-04-22 17:48:00,
2013-04-22 13:53:00,54.5,11.9,30.06,SSE,168,11.4,11.4,18,0.00,,---,0.00,VWS V13.01,2013-04-22 17:53:00,
2013-04-22 13:58:00,54.5,11.9,30.06,SSE,160,10.5,10.5,18,0.00,,---,0.00,VWS V13.01,2013-04-22 17:58:00,
2013-04-22 14:03:00,54.5,11.9,30.06,SSE,168,8.7,8.7,18,0.00,,---,0.00,VWS V13.01,2013-04-22 18:03:00,
2013-04-22 14:08:00,54.5,11.9,30.06,SSE,164,11.9,11.9,18,0.00,,---,0.00,VWS V13.01,2013-04-22 18:08:00,
2013-04-22 14:13:00,54.5,11.9,30.06,SSE,166,8.3,8.3,18,0.00,,---,0.00,VWS V13.01,2013-04-22 18:13:00,
2013-04-22 14:18:00,54.7,14.4,30.06,SSE,166,8.3,8.3,20,0.00,,---,0.00,VWS V13.01,2013-04-22 18:18:00,
2013-04-22 14:23:00,54.7,14.4,30.06,SSE,153,13.6,13.6,20,0.00,,---,0.00,VWS V13.01,2013-04-22 18:23:00,
2013-04-22 14:28:00,54.7,14.4,30.06,SSE,157,10.5,10.5,20,0.00,,---,0.00,VWS V13.01,2013-04-22 18:28:00,
2013-04-22 14:33:00,54.7,14.4,30.06,SSE,157,10.5,10.5,20,0.00,,---,0.00,VWS V13.01,2013-04-22 18:33:00,
2013-04-22 14:38:00,54.7,14.4,30.06,SE,140,7.2,7.2,20,0.00,,---,0.00,VWS V13.01,2013-04-22 18:38:00,
2013-04-22 14:43:00,55.6,11.5,30.06,SE,140,7.2,7.2,17,0.00,,---,0.00,VWS V13.01,2013-04-22 18:43:00,
2013-04-22 14:48:00,55.6,11.5,30.06,SE,140,7.2,7.2,17,0.00,,---,0.00,VWS V13.01,2013-04-22 18:48:00,
2013-04-22 14:53:00,55.6,11.5,30.06,SSE,166,8.3,8.3,17,0.00,,---,0.00,VWS V13.01,2013-04-22 18:53:00,
2013-04-22 14:58:00,55.6,11.5,30.03,SSE,168,11.0,11.0,17,0.00,,---,0.00,VWS V13.01,2013-04-22 18:58:00,
2013-04-22 15:03:00,55.6,11.5,30.03,South,172,8.3,8.3,17,0.00,,---,0.00,VWS V13.01,2013-04-22 19:03:00,
2013-04-22 15:08:00,55.6,11.5,30.03,South,172,8.3,8.3,17,0.00,,---,0.00,VWS V13.01,2013-04-22 19:08:00,
2013-04-22 15:13:00,55.6,11.5,30.03,SSE,162,10.5,10.5,17,0.00,,---,0.00,VWS V13.01,2013-04-22 19:13:00,
2013-04-22 15:18:00,55.6,11.5,30.03,SSE,168,10.1,11.0,17,0.00,,---,0.00,VWS V13.01,2013-04-22 19:18:00,
2013-04-22 15:23:00,55.6,11.5,30.03,South,170,8.7,8.7,17,0.00,,---,0.00,VWS V13.01,2013-04-22 19:23:00,
2013-04-22 15:28:00,55.6,11.5,30.03,SSE,161,15.0,15.0,17,0.00,,---,0.00,VWS V13.01,2013-04-22 19:28:00,
2013-04-22 15:33:00,55.6,11.5,30.03,SSE,160,12.8,12.8,17,0.00,,---,0.00,VWS V13.01,2013-04-22 19:33:00,
2013-04-22 15:38:00,55.6,11.5,30.03,SSE,160,12.8,12.8,17,0.00,,---,0.00,VWS V13.01,2013-04-22 19:38:00,
2013-04-22 15:43:00,55.6,11.5,30.03,SSE,161,8.3,8.3,17,0.00,,---,0.00,VWS V13.01,2013-04-22 19:43:00,
2013-04-22 15:48:00,57.7,8.9,30.03,SSE,166,8.3,8.3,14,0.00,,---,0.00,VWS V13.01,2013-04-22 19:48:00,
2013-04-22 15:53:00,57.7,8.9,30.03,SSE,166,8.3,8.3,14,0.00,,---,0.00,VWS V13.01,2013-04-22 19:53:00,
2013-04-22 15:58:00,56.7,9.6,30.00,SSE,166,11.4,11.4,15,0.00,,---,0.00,VWS V13.01,2013-04-22 19:58:00,
2013-04-22 16:03:00,56.8,9.7,30.00,SSE,162,12.8,12.8,15,0.00,,---,0.00,VWS V13.01,2013-04-22 20:03:00,
2013-04-22 16:08:00,56.8,9.7,30.00,SSE,166,10.5,12.8,15,0.00,,---,0.00,VWS V13.01,2013-04-22 20:08:00,
2013-04-22 16:13:00,56.1,9.1,30.00,SSE,168,10.1,10.1,15,0.00,,---,0.00,VWS V13.01,2013-04-22 20:13:00,
2013-04-22 16:18:00,55.9,9.0,30.00,SSE,168,10.1,10.1,15,0.00,,---,0.00,VWS V13.01,2013-04-22 20:18:00,
2013-04-22 16:23:00,55.9,9.0,30.00,SSE,168,8.7,8.7,15,0.00,,---,0.00,VWS V13.01,2013-04-22 20:23:00,
2013-04-22 16:28:00,57.2,8.4,30.00,SSE,165,8.7,8.7,14,0.00,,---,0.00,VWS V13.01,2013-04-22 20:28:00,
2013-04-22 16:33:00,57.2,8.4,30.00,South,172,8.3,8.3,14,0.00,,---,0.00,VWS V13.01,2013-04-22 20:33:00,
2013-04-22 16:38:00,57.2,8.4,30.00,SSE,162,5.8,6.3,14,0.00,,---,0.00,VWS V13.01,2013-04-22 20:38:00,
2013-04-22 16:43:00,58.1,9.2,30.00,SSE,162,5.8,5.8,14,0.00,,---,0.00,VWS V13.01,2013-04-22 20:43:00,
2013-04-22 16:48:00,58.1,9.2,30.00,South,171,6.7,6.7,14,0.00,,---,0.00,VWS V13.01,2013-04-22 20:48:00,
2013-04-22 16:53:00,57.9,9.0,29.97,South,173,7.6,7.6,14,0.00,,---,0.00,VWS V13.01,2013-04-22 20:53:00,
2013-04-22 16:58:00,57.9,9.0,29.97,SSE,164,8.1,8.1,14,0.00,,---,0.00,VWS V13.01,2013-04-22 20:58:00,
2013-04-22 17:03:00,57.9,9.0,29.97,SSE,167,5.4,5.4,14,0.00,,---,0.00,VWS V13.01,2013-04-22 21:03:00,
2013-04-22 17:08:00,57.9,9.0,29.97,SSE,159,8.1,8.1,14,0.00,,---,0.00,VWS V13.01,2013-04-22 21:08:00,
2013-04-22 17:13:00,57.9,9.0,29.97,SSE,159,8.1,8.1,14,0.00,,---,0.00,VWS V13.01,2013-04-22 21:13:00,
2013-04-22 17:18:00,56.5,9.4,29.97,SSE,162,8.1,8.3,15,0.00,,---,0.00,VWS V13.01,2013-04-22 21:18:00,
2013-04-22 17:23:00,56.5,9.4,29.97,SSE,168,8.7,8.7,15,0.00,,---,0.00,VWS V13.01,2013-04-22 21:23:00,
2013-04-22 17:28:00,56.5,9.4,29.97,South,169,7.2,7.2,15,0.00,,---,0.00,VWS V13.01,2013-04-22 21:28:00,
2013-04-22 17:33:00,57.6,8.7,29.97,SSE,157,10.1,10.1,14,0.00,,---,0.00,VWS V13.01,2013-04-22 21:33:00,
2013-04-22 17:38:00,57.6,8.7,29.97,SSE,157,10.1,10.1,14,0.00,,---,0.00,VWS V13.01,2013-04-22 21:38:00,
2013-04-22 17:43:00,57.6,8.7,29.97,SSE,161,8.3,8.3,14,0.00,,---,0.00,VWS V13.01,2013-04-22 21:43:00,
2013-04-22 17:48:00,57.6,8.7,29.97,SSE,160,7.6,7.6,14,0.00,,---,0.00,VWS V13.01,2013-04-22 21:48:00,
2013-04-22 17:53:00,57.6,8.7,29.97,SSE,160,7.6,7.6,14,0.00,,---,0.00,VWS V13.01,2013-04-22 21:53:00,
2013-04-22 17:58:00,57.6,8.7,29.97,South,169,10.5,10.5,14,0.00,,---,0.00,VWS V13.01,2013-04-22 21:58:00,
2013-04-22 18:03:00,57.6,8.7,29.97,South,169,10.5,10.5,14,0.00,,---,0.00,VWS V13.01,2013-04-22 22:03:00,
2013-04-22 18:08:00,57.6,8.7,29.97,South,169,7.6,7.6,14,0.00,,---,0.00,VWS V13.01,2013-04-22 22:08:00,
2013-04-22 18:13:00,57.6,8.7,29.97,SSE,164,8.3,8.3,14,0.00,,---,0.00,VWS V13.01,2013-04-22 22:13:00,
2013-04-22 18:18:00,57.6,8.7,29.97,SSE,164,8.3,8.3,14,0.00,,---,0.00,VWS V13.01,2013-04-22 22:18:00,
2013-04-22 18:23:00,54.1,7.5,29.97,SSE,164,8.3,8.3,15,0.00,,---,0.00,VWS V13.01,2013-04-22 22:23:00,
2013-04-22 18:28:00,54.7,8.0,29.97,SSE,160,8.7,8.7,15,0.00,,---,0.00,VWS V13.01,2013-04-22 22:28:00,
2013-04-22 18:33:00,53.6,11.1,29.97,SSE,161,6.7,6.7,18,0.00,,---,0.00,VWS V13.01,2013-04-22 22:33:00,
2013-04-22 18:38:00,53.6,11.1,29.97,SSE,168,6.3,6.3,18,0.00,,---,0.00,VWS V13.01,2013-04-22 22:38:00,
2013-04-22 18:43:00,53.6,11.1,29.97,SSE,168,6.3,6.3,18,0.00,,---,0.00,VWS V13.01,2013-04-22 22:43:00,
2013-04-22 18:48:00,53.6,11.1,29.97,SSE,153,7.2,7.2,18,0.00,,---,0.00,VWS V13.01,2013-04-22 22:48:00,
2013-04-22 18:53:00,51.6,10.7,29.97,SSE,162,3.6,3.6,19,0.00,,---,0.00,VWS V13.01,2013-04-22 22:53:00,
2013-04-22 18:58:00,51.6,10.7,29.97,South,176,5.4,5.4,19,0.00,,---,0.00,VWS V13.01,2013-04-22 22:58:00,
2013-04-22 19:03:00,51.8,9.7,29.97,South,177,4.9,4.9,18,0.00,,---,0.00,VWS V13.01,2013-04-22 23:03:00,
2013-04-22 19:08:00,52.0,9.8,29.97,South,169,7.6,7.6,18,0.00,,---,0.00,VWS V13.01,2013-04-22 23:08:00,
2013-04-22 19:13:00,51.8,9.7,29.97,SSE,165,5.4,5.4,18,0.00,,---,0.00,VWS V13.01,2013-04-22 23:13:00,
2013-04-22 19:18:00,51.8,9.7,29.97,SSE,163,6.3,6.3,18,0.00,,---,0.00,VWS V13.01,2013-04-22 23:18:00,
2013-04-22 19:23:00,51.8,9.7,29.94,SSE,166,6.3,6.3,18,0.00,,---,0.00,VWS V13.01,2013-04-22 23:23:00,
2013-04-22 19:28:00,51.6,10.7,29.94,SSE,164,6.7,6.7,19,0.00,,---,0.00,VWS V13.01,2013-04-22 23:28:00,
2013-04-22 19:33:00,51.6,10.7,29.94,SSE,152,4.9,4.9,19,0.00,,---,0.00,VWS V13.01,2013-04-22 23:33:00,
2013-04-22 19:38:00,51.6,10.7,29.94,SSE,166,4.9,4.9,19,0.00,,---,0.00,VWS V13.01,2013-04-22 23:38:00,
2013-04-22 19:42:00,50.4,9.7,29.94,SSE,157,5.8,5.8,19,0.00,,---,0.00,VWS V13.01,2013-04-22 23:42:00,
2013-04-22 19:47:00,50.2,9.5,29.94,SSE,159,5.8,5.8,19,0.00,,---,0.00,VWS V13.01,2013-04-22 23:47:00,
2013-04-22 19:52:00,50.0,9.4,29.94,SSE,147,6.3,6.3,19,0.00,,---,0.00,VWS V13.01,2013-04-22 23:52:00,
2013-04-22 19:57:00,49.6,9.1,29.94,ESE,120,7.2,7.2,19,0.00,,---,0.00,VWS V13.01,2013-04-22 23:57:00,
2013-04-22 20:02:00,49.6,9.1,29.94,ESE,120,7.2,7.2,19,0.00,,---,0.00,VWS V13.01,2013-04-23 00:02:00,
2013-04-22 20:07:00,49.1,10.9,29.94,East,101,7.2,7.2,21,0.00,,---,0.00,VWS V13.01,2013-04-23 00:07:00,
2013-04-22 20:12:00,49.1,10.9,29.94,East,89,6.3,6.3,21,0.00,,---,0.00,VWS V13.01,2013-04-23 00:12:00,
2013-04-22 20:17:00,49.1,10.9,29.94,East,88,6.3,6.3,21,0.00,,---,0.00,VWS V13.01,2013-04-23 00:17:00,
2013-04-22 20:22:00,49.1,10.9,29.97,East,88,5.8,5.8,21,0.00,,---,0.00,VWS V13.01,2013-04-23 00:22:00,
2013-04-22 20:27:00,49.1,10.9,29.97,East,91,5.8,5.8,21,0.00,,---,0.00,VWS V13.01,2013-04-23 00:27:00,
2013-04-22 20:32:00,49.1,13.9,29.97,East,95,6.3,6.3,24,0.00,,---,0.00,VWS V13.01,2013-04-23 00:32:00,
2013-04-22 20:37:00,49.1,13.9,29.97,East,95,5.4,5.4,24,0.00,,---,0.00,VWS V13.01,2013-04-23 00:37:00,
2013-04-22 20:42:00,49.1,13.9,29.97,East,93,2.2,2.2,24,0.00,,---,0.00,VWS V13.01,2013-04-23 00:42:00,
2013-04-22 20:47:00,48.6,13.4,29.97,ESE,102,0.0,2.7,24,0.00,,---,0.00,VWS V13.01,2013-04-23 00:47:00,
2013-04-22 20:52:00,48.4,15.1,29.97,ESE,103,0.0,0.0,26,0.00,,---,0.00,VWS V13.01,2013-04-23 00:52:00,
2013-04-22 20:57:00,48.4,15.1,29.97,ESE,110,2.7,2.7,26,0.00,,---,0.00,VWS V13.01,2013-04-23 00:57:00,
2013-04-22 21:02:00,47.1,14.9,29.97,ESE,111,2.2,2.2,27,0.00,,---,0.00,VWS V13.01,2013-04-23 01:02:00,
2013-04-22 21:07:00,46.8,14.6,29.97,ESE,111,2.2,2.2,27,0.00,,---,0.00,VWS V13.01,2013-04-23 01:07:00,
2013-04-22 21:12:00,46.8,14.6,29.97,ESE,103,3.1,3.1,27,0.00,,---,0.00,VWS V13.01,2013-04-23 01:12:00,
2013-04-22 21:17:00,46.8,14.6,29.97,East,87,3.1,3.1,27,0.00,,---,0.00,VWS V13.01,2013-04-23 01:17:00,
2013-04-22 21:22:00,46.8,14.6,29.97,ESE,110,2.7,3.1,27,0.00,,---,0.00,VWS V13.01,2013-04-23 01:22:00,
2013-04-22 21:27:00,46.8,14.6,29.97,ESE,103,8.3,8.3,27,0.00,,---,0.00,VWS V13.01,2013-04-23 01:27:00,
2013-04-22 21:32:00,46.8,14.6,29.97,ESE,111,7.6,7.6,27,0.00,,---,0.00,VWS V13.01,2013-04-23 01:32:00,
2013-04-22 21:37:00,46.8,14.6,29.97,SE,124,7.6,7.6,27,0.00,,---,0.00,VWS V13.01,2013-04-23 01:37:00,
2013-04-22 21:42:00,47.1,14.9,29.97,ESE,110,8.3,8.3,27,0.00,,---,0.00,VWS V13.01,2013-04-23 01:42:00,
2013-04-22 21:47:00,47.1,14.9,29.97,ESE,120,13.2,13.2,27,0.00,,---,0.00,VWS V13.01,2013-04-23 01:47:00,
2013-04-22 21:52:00,48.0,13.0,29.97,SE,128,8.7,8.7,24,0.00,,---,0.00,VWS V13.01,2013-04-23 01:52:00,
2013-04-22 21:57:00,48.0,13.0,29.97,SE,128,11.0,12.8,24,0.00,,---,0.00,VWS V13.01,2013-04-23 01:57:00,
2013-04-22 22:02:00,48.6,8.2,29.97,SE,127,11.9,11.9,19,0.00,,---,0.00,VWS V13.01,2013-04-23 02:02:00,
2013-04-22 22:07:00,48.7,10.6,29.97,SE,135,10.5,10.5,21,0.00,,---,0.00,VWS V13.01,2013-04-23 02:07:00,
2013-04-22 22:12:00,48.7,10.6,29.97,SE,137,10.5,10.5,21,0.00,,---,0.00,VWS V13.01,2013-04-23 02:12:00,
2013-04-22 22:17:00,48.7,10.6,29.97,SE,132,11.0,11.0,21,0.00,,---,0.00,VWS V13.01,2013-04-23 02:17:00,
2013-04-22 22:22:00,48.7,10.6,29.97,SE,127,11.0,11.0,21,0.00,,---,0.00,VWS V13.01,2013-04-23 02:22:00,
2013-04-22 22:27:00,48.4,8.0,29.97,SE,129,10.1,10.1,19,0.00,,---,0.00,VWS V13.01,2013-04-23 02:27:00,
2013-04-22 22:32:00,48.4,8.0,29.97,SE,136,11.9,11.9,19,0.00,,---,0.00,VWS V13.01,2013-04-23 02:32:00,
2013-04-22 22:37:00,48.4,8.0,29.97,ESE,118,12.8,12.8,19,0.00,,---,0.00,VWS V13.01,2013-04-23 02:37:00,
2013-04-22 22:42:00,48.4,8.0,29.97,SE,125,12.3,12.3,19,0.00,,---,0.00,VWS V13.01,2013-04-23 02:42:00,
2013-04-22 22:47:00,48.0,7.7,29.97,SE,133,12.8,12.8,19,0.00,,---,0.00,VWS V13.01,2013-04-23 02:47:00,
2013-04-22 22:52:00,48.0,7.7,29.97,SE,135,13.2,13.2,19,0.00,,---,0.00,VWS V13.01,2013-04-23 02:52:00,
2013-04-22 22:57:00,48.0,7.7,29.97,SE,129,14.1,14.1,19,0.00,,---,0.00,VWS V13.01,2013-04-23 02:57:00,
2013-04-22 23:02:00,48.0,7.7,29.97,SE,128,13.2,14.1,19,0.00,,---,0.00,VWS V13.01,2013-04-23 03:02:00,
2013-04-22 23:07:00,48.0,7.7,29.97,SE,137,12.3,12.3,19,0.00,,---,0.00,VWS V13.01,2013-04-23 03:07:00,
2013-04-22 23:12:00,48.0,7.7,29.97,SSE,147,12.8,12.8,19,0.00,,---,0.00,VWS V13.01,2013-04-23 03:12:00,
2013-04-22 23:17:00,48.0,7.7,29.97,SE,138,13.6,13.6,19,0.00,,---,0.00,VWS V13.01,2013-04-23 03:17:00,
2013-04-22 23:22:00,48.0,7.7,29.97,SE,137,12.8,12.8,19,0.00,,---,0.00,VWS V13.01,2013-04-23 03:22:00,
2013-04-22 23:27:00,48.0,7.7,29.97,SE,131,11.9,11.9,19,0.00,,---,0.00,VWS V13.01,2013-04-23 03:27:00,